[[{"header":{"parameterUnit":"m.s-1","parameterCategory":2,"la1":30.2991,"la2":30.254,"lo1":-89.0895,"lo2":-89.0444,"dy":0.0017,"dx":0.0017,"nx":28,"ny":28,"refTime":"2024-07-31T09:00:00:Z","depth":"0","parameterNumber":2,"parameterNumberName":"U-component_of_CURRENTS"},"data":[0,0,0,0,0,0,0,0,0,0,0,0,0,0,0,0,0,0,0,0,0,0,0,0,0,0,0,0,0,0,0,0,0,0,0,0,0,0,0,0,0,0,0,0,0,0,0,0,0,0,0,0,0,0,0,0,0,0,0.2791,0.2792,0,0.2852,0.2852,0.2853,0.2852,0.2852,0.2851,0.2851,0.2881,0.2882,0.2883,0,0,0,0,0,0,0,0,0,0,0,0,0,0.2747,0.2747,0.2791,0.2792,0.2793,0.2852,0.2852,0.2853,0.2852,0.2852,0.2851,0.2851,0.2881,0.2882,0.2883,0,0,0,0,0,0,0,0,0,0,0,0,0,0.2779,0.2747,0.279,0.2803,0.2805,0.2852,0.2852,0.2853,0.2853,0.2852,0.2851,0.2851,0.288,0.2882,0.2884,0.2907,0,0,0.2889,0.289,0,0,0,0,0,0,0,0,0.2777,0.278,0.28,0.2802,0.2805,0.2847,0.2848,0.2871,0.2853,0.283,0.2851,0.285,0.287,0.2873,0.288,0.2909,0.291,0.2889,0.289,0.2891,0.2892,0,0,0,0,0,0,0,0.2774,0.2778,0.2811,0.2801,0.2804,0.2831,0.2834,0.2853,0.2849,0.2832,0.2833,0.2847,0.287,0.2878,0.2881,0.291,0.2889,0.2891,0.2892,0.2893,0.3001,0.3002,0,0,0,0,0,0,0.2772,0.2775,0.2809,0.2813,0.2794,0.2832,0.2835,0.2831,0.285,0.2853,0.2847,0.2847,0.2876,0.2879,0.2882,0.2945,0.2891,0.2893,0.2894,0.2999,0.3001,0.3003,0,0,0,0,0,0,0.2771,0.2774,0.2806,0.28,0.2806,0.2834,0.2829,0.2833,0.2851,0.2862,0.2864,0.2863,0.2875,0.2879,0.2909,0.2944,0.2894,0.2895,0.2997,0.2999,0.3002,0.3049,0,0,0,0,0,0,0.2769,0.2772,0.2769,0.2799,0.2807,0.2859,0.283,0.2834,0.2861,0.2861,0.2877,0.2878,0.2875,0.2907,0.2911,0.2946,0.2897,0.2994,0.2998,0.3001,0.3045,0.3053,0.306,0,0,0,0,0,0.2767,0.2773,0.2767,0.2772,0.28,0.2862,0.2869,0.2883,0.2863,0.2891,0.2887,0.2878,0.2932,0.291,0.2914,0.295,0.2993,0.2997,0.3001,0.3042,0.3051,0.3059,0,0,0,0,0,0,0.275,0.2775,0.2769,0.278,0.2828,0.2864,0.2888,0.2893,0.2911,0.2904,0.2897,0.29,0.2941,0.2942,0.2918,0.2993,0.2963,0.2968,0.2993,0.3002,0.3009,0.3009,0.2898,0,0,0,0,0,0.2745,0.2755,0.2793,0.2806,0.2829,0.2857,0.288,0.2896,0.2918,0.2926,0.2942,0.2951,0.2962,0.2977,0.2995,0.3035,0.3033,0.3064,0.3072,0.3078,0.3083,0.3127,0.3138,0.3016,0.3016,0.3016,0,0,0.2744,0.2758,0.2764,0.2805,0.2834,0.2879,0.2869,0.2919,0.2955,0.2926,0.2978,0.298,0.2978,0.3021,0.3041,0.3026,0.3107,0.3083,0.3088,0.3089,0.3132,0.3144,0.3154,0.3019,0.3018,0.3018,0,0,0.2751,0.2761,0.2772,0.2818,0.2873,0.2904,0.2922,0.2977,0.2999,0.3055,0.3029,0.3053,0.3095,0.3095,0.3096,0.3158,0.3143,0.3167,0.3206,0.3249,0.3259,0.3268,0.3258,0.3266,0.3172,0.3173,0.3173,0,0.2745,0.2756,0.2793,0.2827,0.2866,0.2916,0.2954,0.2998,0.3058,0.3078,0.3086,0.3127,0.3133,0.3148,0.317,0.3175,0.3177,0.3168,0.3257,0.3266,0.3275,0.3263,0.3271,0.3175,0.3175,0.3175,0.3174,0,0.2762,0.2782,0.2806,0.2856,0.2912,0.2963,0.3033,0.3089,0.3126,0.3161,0.3211,0.3221,0.3239,0.3251,0.323,0.3282,0.3255,0.3258,0.3231,0.329,0.3273,0.3281,0.3179,0.3178,0.3177,0.3177,0,0,0.2714,0.2794,0.2801,0.2831,0.293,0.2979,0.3058,0.3135,0.3173,0.3247,0.3287,0.3321,0.3322,0.3322,0.3301,0.334,0.3395,0.3328,0.3329,0.3309,0.3455,0.3212,0.3196,0.3417,0.3419,0.3421,0.3411,0,0.271,0.2764,0.2812,0.2887,0.2929,0.3013,0.3081,0.3163,0.3232,0.3297,0.3323,0.3358,0.3348,0.3349,0.339,0.3397,0.3421,0.3395,0.3409,0.3408,0.3179,0.3199,0.3029,0.2986,0.3418,0.3419,0.342,0,0.2696,0.2742,0.2797,0.2898,0.2923,0.2977,0.3091,0.3159,0.3261,0.3312,0.3361,0.3386,0.3431,0.3424,0.3479,0.3464,0.3464,0.3472,0.3472,0.3234,0.3179,0.3004,0.2983,0.2938,0.3431,0.343,0.3429,0,0.2638,0.2729,0.2768,0.2808,0.2932,0.2969,0.3038,0.3151,0.3205,0.331,0.3348,0.342,0.3427,0.349,0.3488,0.3506,0.3531,0.3561,0.3334,0.3316,0.3164,0.3127,0.3092,0.3602,0.3602,0.3602,0.3602,0,0.2611,0.2648,0.2741,0.277,0.2839,0.2929,0.2999,0.3087,0.3178,0.323,0.3328,0.3342,0.345,0.3467,0.3501,0.3401,0.354,0.3328,0.3299,0.3169,0.3133,0.3079,0.3076,0.3602,0.3602,0.3602,0.3602,0,0.2551,0.2603,0.2663,0.2773,0.2809,0.2859,0.2972,0.3029,0.311,0.3176,0.3205,0.3289,0.3285,0.3336,0.3395,0.3349,0.3211,0.326,0.3055,0.2999,0.2708,0.2713,0.2486,0.2438,0.3027,0.3021,0.3015,0,0.2523,0.2544,0.2651,0.2702,0.2751,0.283,0.2894,0.2992,0.3043,0.3118,0.3137,0.3135,0.31,0.3046,0.299,0.2951,0.2947,0.2744,0.2738,0.264,0.2631,0.2553,0.253,0.2574,0.2566,0.2559,0.2553,0,0.2499,0.253,0.2598,0.2678,0.2745,0.2797,0.2874,0.2882,0.298,0.2987,0.2951,0.2912,0.2817,0.2644,0.2545,0.2524,0.2574,0.2592,0.2594,0.2327,0.2146,0.2103,0.2614,0.2493,0.2499,0.2503,0.2507,0.2509,0.2493,0.2525,0.2602,0.2674,0.2737,0.2731,0.2699,0.2738,0.2713,0.2648,0.2718,0.2559,0.2443,0.224,0.2194,0.1985,0.2074,0.1936,0.1968,0.1913,0.1787,0.2094,0.1863,0.1865,0.1867,0.1869,0.1871,0,0.2469,0.2514,0.2597,0.2636,0.2635,0.2679,0.2668,0.2574,0.244,0.2402,0.2303,0.2084,0.1875,0.1786,0.1566,0.1445,0.1447,0.1401,0.1361,0.1395,0.1767,0.1668,0.1258,0.1258,0.1258,0.1258,0.1258,0.1258,0.2471,0.2512,0.2542,0.2518,0.2519,0.2404,0.2336,0.2194,0.2108,0.1841,0.1662,0.1618,0.1538,0.1325,0.1149,0.1119,0.111,0.0909,0.1034,0.1409,0.1467,0.1522,0.1431,0.0978,0.0977,0.0601,0.0598,0.0596]},{"header":{"parameterUnit":"m.s-1","parameterCategory":2,"la1":30.2991,"la2":30.254,"lo1":-89.0895,"lo2":-89.0444,"dy":0.0017,"dx":0.0017,"nx":28,"ny":28,"refTime":"2024-07-31T09:00:00:Z","depth":"0","parameterNumber":3,"parameterNumberName":"V-component_of_CURRENTS"},"data":[0,0,0,0,0,0,0,0,0,0,0,0,0,0,0,0,0,0,0,0,0,0,0,0,0,0,0,0,0,0,0,0,0,0,0,0,0,0,0,0,0,0,0,0,0,0,0,0,0,0,0,0,0,0,0,0,0,0,0.0411,0.0411,0,0.0428,0.0428,0.0429,0.0421,0.042,0.042,0.0419,0.0463,0.0465,0.0466,0,0,0,0,0,0,0,0,0,0,0,0,0,0.0378,0.0379,0.0411,0.0411,0.0411,0.0428,0.0428,0.0429,0.0421,0.042,0.042,0.0419,0.0463,0.0465,0.0466,0,0,0,0,0,0,0,0,0,0,0,0,0,0.0394,0.0379,0.0411,0.0409,0.0409,0.0428,0.0428,0.0429,0.0421,0.042,0.0419,0.0419,0.0462,0.0464,0.0467,0.0495,0,0,0.0474,0.0475,0,0,0,0,0,0,0,0,0.0393,0.0395,0.0409,0.0409,0.0409,0.0421,0.0433,0.0452,0.0421,0.0417,0.0419,0.0419,0.0452,0.0455,0.046,0.0497,0.0499,0.0474,0.0476,0.0477,0.0477,0,0,0,0,0,0,0,0.0392,0.0394,0.0418,0.0409,0.0409,0.041,0.0411,0.0436,0.0439,0.0417,0.0416,0.0418,0.0452,0.0458,0.0461,0.05,0.0474,0.0476,0.0478,0.0479,0.0606,0.0608,0,0,0,0,0,0,0.039,0.0393,0.0417,0.0418,0.0399,0.0411,0.0413,0.0418,0.0438,0.044,0.0419,0.0418,0.0454,0.0458,0.0463,0.0531,0.0477,0.0479,0.048,0.0604,0.0606,0.0608,0,0,0,0,0,0,0.0389,0.0392,0.0417,0.0406,0.0409,0.0412,0.0419,0.0419,0.0428,0.0439,0.0441,0.0428,0.0454,0.0459,0.0498,0.0531,0.048,0.0482,0.0602,0.0605,0.0607,0.0647,0,0,0,0,0,0,0.0388,0.0392,0.0397,0.0406,0.0409,0.0441,0.0419,0.042,0.043,0.0429,0.0448,0.045,0.0453,0.0494,0.05,0.0534,0.0484,0.0599,0.0603,0.0606,0.0643,0.0651,0.0658,0,0,0,0,0,0.0387,0.0402,0.0397,0.04,0.0416,0.0442,0.0445,0.0444,0.0431,0.0447,0.0458,0.045,0.0522,0.0498,0.0504,0.0539,0.0597,0.0602,0.0606,0.064,0.0649,0.0657,0,0,0,0,0,0,0.0391,0.0403,0.0397,0.0414,0.043,0.0441,0.0454,0.045,0.047,0.0471,0.0472,0.0477,0.0523,0.053,0.0504,0.0589,0.056,0.0566,0.0584,0.0593,0.06,0.0621,0.0486,0,0,0,0,0,0.0393,0.0408,0.0419,0.0434,0.0444,0.0449,0.0458,0.0461,0.0477,0.0484,0.0498,0.0519,0.0547,0.0567,0.0591,0.0639,0.0636,0.0668,0.0675,0.0681,0.0705,0.0731,0.0742,0.0623,0.0623,0.0623,0,0,0.0396,0.0407,0.0413,0.0436,0.0447,0.0479,0.0454,0.0478,0.0511,0.0489,0.0539,0.0543,0.0564,0.0615,0.0637,0.0625,0.0708,0.0687,0.0691,0.0712,0.0737,0.0748,0.0758,0.0626,0.0625,0.0625,0,0,0.0422,0.0424,0.0448,0.0468,0.0491,0.0504,0.0513,0.0533,0.0548,0.0594,0.0585,0.0616,0.0657,0.0683,0.0699,0.0766,0.0741,0.0767,0.0827,0.0851,0.0861,0.087,0.0851,0.0858,0.0776,0.0776,0.0776,0,0.0427,0.0457,0.046,0.0494,0.0519,0.0518,0.056,0.0582,0.0613,0.0645,0.0621,0.0695,0.0699,0.0771,0.0785,0.0784,0.0773,0.0786,0.0859,0.0868,0.0876,0.0855,0.0862,0.0779,0.0778,0.0778,0.0778,0,0.0475,0.0499,0.052,0.0564,0.0594,0.0629,0.0661,0.0697,0.0711,0.0735,0.0802,0.0805,0.0855,0.0853,0.0837,0.0904,0.0866,0.0856,0.0832,0.089,0.0864,0.0871,0.0782,0.0781,0.0781,0.078,0,0,0.0489,0.0542,0.0549,0.0585,0.0634,0.0671,0.0736,0.0804,0.0867,0.0884,0.0965,0.0987,0.0983,0.1002,0.0984,0.0997,0.1019,0.0949,0.0949,0.0921,0.1038,0.0991,0.0992,0.1012,0.1014,0.1016,0.0985,0,0.0528,0.0598,0.0619,0.07,0.0743,0.0777,0.0848,0.0911,0.0958,0.1036,0.1047,0.111,0.1043,0.1066,0.107,0.1048,0.1043,0.1026,0.0997,0.0996,0.0939,0.1002,0.0969,0.0939,0.0991,0.0992,0.0993,0,0.0574,0.0616,0.0692,0.0784,0.081,0.0862,0.0985,0.1047,0.1148,0.1188,0.1241,0.1247,0.1285,0.1212,0.1198,0.1186,0.1118,0.1079,0.1077,0.1032,0.0963,0.0898,0.0948,0.0942,0.1003,0.1002,0.1001,0,0.0596,0.0676,0.074,0.0768,0.0867,0.0923,0.0986,0.1095,0.1178,0.1286,0.1354,0.1386,0.1413,0.1362,0.1271,0.1241,0.1236,0.1189,0.1076,0.1069,0.104,0.1028,0.1079,0.1173,0.1173,0.1174,0.1174,0,0.0639,0.0695,0.0755,0.0794,0.09,0.0957,0.1087,0.1162,0.1286,0.14,0.1426,0.1501,0.145,0.1436,0.1331,0.1232,0.1284,0.1106,0.1078,0.1048,0.1038,0.1029,0.1023,0.1172,0.1173,0.1173,0.1173,0,0.0668,0.0699,0.0781,0.0875,0.0911,0.0992,0.1139,0.1245,0.1344,0.1492,0.1532,0.1603,0.158,0.1504,0.1424,0.1312,0.1206,0.1161,0.1108,0.1075,0.0955,0.0952,0.0974,0.0992,0.1045,0.1043,0.1043,0,0.0692,0.0732,0.0828,0.0887,0.0933,0.1047,0.1144,0.1266,0.1383,0.1545,0.1627,0.1653,0.1669,0.1542,0.137,0.1205,0.1176,0.1057,0.1003,0.0971,0.0948,0.0949,0.0964,0.096,0.0958,0.0957,0.0956,0,0.0745,0.0771,0.0837,0.0941,0.1036,0.1154,0.1292,0.1384,0.1537,0.1634,0.1743,0.1759,0.1648,0.1486,0.1278,0.1153,0.107,0.1024,0.1029,0.0932,0.0904,0.0898,0.0927,0.0945,0.0947,0.0947,0.0948,0.0948,0.0784,0.0835,0.0909,0.1017,0.1126,0.1255,0.1343,0.147,0.1609,0.174,0.1778,0.1771,0.1594,0.1306,0.1176,0.0942,0.097,0.0852,0.0859,0.0869,0.0883,0.087,0.0837,0.0837,0.0838,0.0838,0.0838,0,0.082,0.0884,0.0987,0.1109,0.1221,0.1273,0.1445,0.1515,0.1625,0.1709,0.1758,0.1641,0.1432,0.1228,0.0929,0.0807,0.0787,0.0762,0.0777,0.0807,0.0822,0.0816,0.0733,0.0733,0.0733,0.0733,0.0733,0.0733,0.0846,0.0929,0.098,0.1158,0.1251,0.1375,0.1456,0.1537,0.1606,0.1624,0.1585,0.1579,0.1466,0.1056,0.0827,0.0768,0.0772,0.0704,0.0756,0.0769,0.0779,0.0788,0.0784,0.0695,0.0695,0.0743,0.0744,0.0744]}],[{"header":{"parameterUnit":"m.s-1","parameterCategory":2,"la1":30.2991,"la2":30.254,"lo1":-89.0895,"lo2":-89.0444,"dy":0.0017,"dx":0.0017,"nx":28,"ny":28,"refTime":"2024-07-31T09:00:00:Z","depth":"2","parameterNumber":2,"parameterNumberName":"U-component_of_CURRENTS"},"data":[0,0,0,0,0,0,0,0,0,0,0,0,0,0,0,0,0,0,0,0,0,0,0,0,0,0,0,0,0,0,0,0,0,0,0,0,0,0,0,0,0,0,0,0,0,0,0,0,0,0,0,0,0,0,0,0,0,0,0.209,0.209,0,0.2113,0.2114,0.2115,0.216,0.216,0.216,0.2161,0.2223,0.2224,0.2225,0,0,0,0,0,0,0,0,0,0,0,0,0,0.212,0.212,0.209,0.209,0.209,0.2113,0.2114,0.2115,0.216,0.216,0.216,0.2161,0.2222,0.2224,0.2226,0,0,0,0,0,0,0,0,0,0,0,0,0,0.2128,0.2119,0.209,0.211,0.2112,0.2113,0.2114,0.2115,0.216,0.216,0.216,0.2161,0.2222,0.2224,0.2226,0.223,0,0,0.2232,0.2233,0,0,0,0,0,0,0,0,0.2127,0.2127,0.2107,0.2109,0.211,0.2128,0.2147,0.2153,0.216,0.2148,0.2161,0.2161,0.219,0.2195,0.2207,0.2233,0.2236,0.2232,0.2234,0.2234,0.2235,0,0,0,0,0,0,0,0.2126,0.2127,0.2106,0.2107,0.2109,0.2129,0.2131,0.2149,0.2172,0.2149,0.2151,0.2143,0.2192,0.2205,0.2209,0.2237,0.2232,0.2234,0.2235,0.2236,0.2352,0.2353,0,0,0,0,0,0,0.2108,0.2126,0.2105,0.2106,0.2112,0.2128,0.213,0.2127,0.2171,0.2176,0.2143,0.2145,0.2201,0.2206,0.2211,0.2287,0.2234,0.2236,0.2238,0.235,0.2352,0.2354,0,0,0,0,0,0,0.2109,0.2106,0.2104,0.2111,0.2111,0.2126,0.2123,0.2127,0.2161,0.2165,0.2172,0.2172,0.2202,0.2208,0.2249,0.2287,0.2237,0.2239,0.2348,0.2351,0.2353,0.2394,0,0,0,0,0,0,0.211,0.2107,0.2104,0.211,0.211,0.2176,0.2122,0.2127,0.215,0.2155,0.2192,0.2197,0.2203,0.2246,0.2251,0.2289,0.2241,0.2345,0.2349,0.2352,0.239,0.2398,0.2404,0,0,0,0,0,0.2111,0.2106,0.2104,0.2101,0.2104,0.2179,0.2186,0.2199,0.2152,0.2219,0.2198,0.2197,0.2272,0.2249,0.2254,0.2293,0.2344,0.2348,0.2352,0.2387,0.2396,0.2404,0,0,0,0,0,0,0.211,0.2109,0.2107,0.21,0.2167,0.2186,0.2207,0.2208,0.2242,0.221,0.2213,0.222,0.2277,0.2278,0.2252,0.2339,0.2311,0.2316,0.2336,0.2344,0.2351,0.2388,0.2243,0,0,0,0,0,0.2106,0.2114,0.2142,0.215,0.217,0.2189,0.2209,0.222,0.2238,0.2252,0.2268,0.227,0.2295,0.2312,0.2343,0.238,0.2382,0.2412,0.2419,0.2425,0.2461,0.2485,0.2498,0.2367,0.2367,0.2367,0,0,0.2105,0.2105,0.2108,0.2154,0.2179,0.221,0.2207,0.2245,0.2272,0.2249,0.2286,0.2302,0.2313,0.2363,0.2388,0.2369,0.2458,0.243,0.2434,0.2468,0.2491,0.2504,0.2515,0.237,0.237,0.2369,0,0,0.2107,0.2114,0.2121,0.2184,0.2225,0.2233,0.2251,0.2286,0.232,0.237,0.2339,0.2381,0.2426,0.2441,0.2449,0.2513,0.2498,0.2519,0.2579,0.2602,0.2612,0.2622,0.2612,0.2621,0.2516,0.2516,0.2516,0,0.2106,0.2107,0.2149,0.2187,0.2212,0.2241,0.2265,0.2311,0.2359,0.2384,0.24,0.2463,0.247,0.2514,0.2541,0.2532,0.2529,0.2539,0.261,0.262,0.2629,0.2617,0.2626,0.2519,0.2518,0.2518,0.2518,0,0.2127,0.2135,0.2154,0.2189,0.2242,0.228,0.2332,0.2384,0.24,0.2435,0.2527,0.2564,0.2607,0.2616,0.2602,0.2667,0.2638,0.2616,0.2584,0.2644,0.2627,0.2636,0.2522,0.2521,0.2521,0.252,0,0,0.2097,0.2149,0.2157,0.2179,0.2241,0.2287,0.2335,0.2401,0.2433,0.2529,0.2601,0.2669,0.2701,0.2716,0.2714,0.2748,0.2794,0.2718,0.2718,0.2702,0.2825,0.2604,0.2592,0.2779,0.2781,0.2783,0.2775,0,0.2098,0.2126,0.2164,0.2208,0.2219,0.2292,0.235,0.2418,0.2484,0.2573,0.2653,0.2727,0.2733,0.2767,0.2806,0.2801,0.2825,0.2798,0.2777,0.2777,0.2568,0.2598,0.2418,0.2379,0.2783,0.2784,0.2785,0,0.2101,0.2107,0.2142,0.22,0.2221,0.2271,0.236,0.2427,0.2547,0.2631,0.2729,0.277,0.2855,0.2859,0.2913,0.2893,0.2878,0.2878,0.2876,0.2673,0.2574,0.2392,0.2379,0.2799,0.2798,0.2797,0.2796,0,0.2045,0.2095,0.2114,0.2151,0.2229,0.2282,0.2328,0.2435,0.2503,0.2671,0.2736,0.2841,0.2898,0.2937,0.2919,0.2925,0.2958,0.2948,0.274,0.2723,0.257,0.2533,0.2996,0.2996,0.2996,0.2996,0.2996,0,0.2029,0.2044,0.2104,0.213,0.219,0.226,0.235,0.2447,0.256,0.2635,0.2764,0.2817,0.2925,0.2929,0.2936,0.284,0.2959,0.2764,0.2713,0.2571,0.2536,0.291,0.29,0.2995,0.2996,0.2996,0.2996,0,0.199,0.2025,0.2065,0.2142,0.2177,0.2239,0.2355,0.2409,0.2543,0.2646,0.2699,0.28,0.2808,0.2848,0.2878,0.2809,0.2774,0.2706,0.2509,0.2432,0.2528,0.2522,0.2497,0.2489,0.2483,0.2477,0.2473,0,0.1966,0.198,0.2079,0.2115,0.2166,0.2249,0.23,0.2424,0.2474,0.2599,0.2631,0.2659,0.2637,0.2583,0.2512,0.2454,0.2589,0.2219,0.2194,0.2528,0.2482,0.2485,0.2487,0.2016,0.2008,0.2001,0.1996,0,0.1943,0.2006,0.2059,0.2085,0.2155,0.2212,0.2279,0.2295,0.2425,0.2464,0.2452,0.2416,0.237,0.2185,0.2095,0.2047,0.2216,0.2074,0.2506,0.2134,0.2063,0.2021,0.2041,0.1938,0.1944,0.1948,0.1951,0.1953,0.1952,0.1979,0.2036,0.2067,0.2129,0.2124,0.2106,0.2139,0.2142,0.2129,0.2184,0.2075,0.2051,0.1779,0.1685,0.1623,0.1778,0.1716,0.1743,0.1775,0.1685,0.1602,0.1374,0.1376,0.1379,0.138,0.1382,0,0.1904,0.1933,0.1975,0.2,0.1977,0.2046,0.205,0.1975,0.1885,0.189,0.1823,0.1587,0.1413,0.1422,0.1217,0.1144,0.122,0.1105,0.1226,0.1281,0.133,0.1226,0.079,0.0789,0.0787,0.0786,0,0,0.1891,0.188,0.188,0.1824,0.1829,0.1772,0.1729,0.1639,0.1597,0.1432,0.1346,0.1374,0.1376,0.1096,0.1017,0.088,0.1097,0.0839,0.1311,0.1512,0.1561,0.1665,0.156,0,0,0,0,0]},{"header":{"parameterUnit":"m.s-1","parameterCategory":2,"la1":30.2991,"la2":30.254,"lo1":-89.0895,"lo2":-89.0444,"dy":0.0017,"dx":0.0017,"nx":28,"ny":28,"refTime":"2024-07-31T09:00:00:Z","depth":"2","parameterNumber":3,"parameterNumberName":"V-component_of_CURRENTS"},"data":[0,0,0,0,0,0,0,0,0,0,0,0,0,0,0,0,0,0,0,0,0,0,0,0,0,0,0,0,0,0,0,0,0,0,0,0,0,0,0,0,0,0,0,0,0,0,0,0,0,0,0,0,0,0,0,0,0,0,0.0095,0.0095,0,0.0089,0.0089,0.0089,0.0093,0.0093,0.0093,0.0093,0.013,0.0131,0.0132,0,0,0,0,0,0,0,0,0,0,0,0,0,0.01,0.01,0.0096,0.0095,0.0095,0.0089,0.0089,0.0089,0.0093,0.0093,0.0093,0.0093,0.0129,0.0131,0.0132,0,0,0,0,0,0,0,0,0,0,0,0,0,0.0098,0.01,0.0096,0.0094,0.0094,0.0089,0.0089,0.0089,0.0093,0.0093,0.0093,0.0093,0.0129,0.0131,0.0132,0.0143,0,0,0.0137,0.0137,0,0,0,0,0,0,0,0,0.0099,0.0099,0.0095,0.0094,0.0094,0.009,0.0104,0.0109,0.0093,0.0096,0.0093,0.0093,0.0119,0.0121,0.0123,0.0145,0.0146,0.0137,0.0138,0.0138,0.0139,0,0,0,0,0,0,0,0.0099,0.0099,0.0095,0.0094,0.0094,0.009,0.009,0.0105,0.0111,0.0096,0.0095,0.0091,0.0119,0.0121,0.0124,0.0147,0.0137,0.0138,0.0139,0.014,0.0217,0.0218,0,0,0,0,0,0,0.0095,0.0099,0.0096,0.0095,0.0093,0.009,0.009,0.0093,0.0109,0.0111,0.0091,0.0091,0.0119,0.0122,0.0125,0.0184,0.0138,0.014,0.0141,0.0216,0.0217,0.0218,0,0,0,0,0,0,0.0096,0.0095,0.0096,0.0094,0.0094,0.009,0.0093,0.0093,0.01,0.0105,0.0107,0.0099,0.0119,0.0123,0.0148,0.0183,0.0141,0.0142,0.0214,0.0216,0.0218,0.0272,0,0,0,0,0,0,0.0096,0.0096,0.0098,0.0094,0.0094,0.0107,0.0093,0.0093,0.0096,0.0096,0.0112,0.0115,0.0119,0.0145,0.0149,0.0185,0.0143,0.0213,0.0215,0.0217,0.0268,0.0275,0.028,0,0,0,0,0,0.0096,0.0102,0.0099,0.0098,0.0097,0.0108,0.0108,0.0106,0.0097,0.011,0.0116,0.0115,0.0162,0.0147,0.0152,0.0188,0.0212,0.0215,0.0217,0.0266,0.0274,0.028,0,0,0,0,0,0,0.0104,0.0103,0.0099,0.0103,0.011,0.0108,0.0114,0.011,0.0123,0.0123,0.0126,0.013,0.0167,0.0166,0.015,0.0216,0.0189,0.0192,0.0224,0.0232,0.0238,0.026,0.0144,0,0,0,0,0,0.0106,0.0114,0.0112,0.0118,0.0121,0.0118,0.012,0.012,0.0127,0.0132,0.013,0.0144,0.018,0.0195,0.0211,0.0245,0.0233,0.0272,0.0278,0.0283,0.0304,0.0309,0.0317,0.0227,0.0227,0.0227,0,0,0.011,0.0111,0.0114,0.0121,0.0124,0.0128,0.0121,0.013,0.0133,0.0135,0.0136,0.0161,0.0192,0.0232,0.0249,0.0238,0.0299,0.0286,0.0291,0.0309,0.0312,0.0321,0.0329,0.0228,0.0228,0.0228,0,0,0.0126,0.0125,0.0137,0.0144,0.0149,0.0143,0.0147,0.0141,0.0143,0.0149,0.0166,0.0213,0.0223,0.0273,0.0299,0.0348,0.0328,0.0352,0.0408,0.0411,0.0419,0.0426,0.0403,0.0407,0.0358,0.0359,0.0359,0,0.013,0.0145,0.0144,0.0158,0.0163,0.0149,0.0163,0.0161,0.0159,0.0193,0.0151,0.0242,0.0248,0.0362,0.0374,0.0365,0.0351,0.0378,0.042,0.0426,0.0432,0.0407,0.0411,0.0362,0.0361,0.0361,0.0361,0,0.0161,0.0166,0.0176,0.0184,0.019,0.0203,0.0195,0.0197,0.0182,0.0207,0.0288,0.0305,0.0377,0.0384,0.0388,0.047,0.0439,0.0422,0.0401,0.0444,0.0415,0.0418,0.0366,0.0365,0.0364,0.0363,0,0,0.0184,0.0196,0.0199,0.0211,0.0208,0.0222,0.0224,0.0263,0.0313,0.0308,0.0393,0.0443,0.0487,0.052,0.055,0.0553,0.0559,0.0507,0.0506,0.0484,0.0549,0.0503,0.0501,0.0546,0.0547,0.0548,0.0504,0,0.021,0.0237,0.0237,0.026,0.0269,0.0267,0.0284,0.0321,0.0349,0.0418,0.048,0.0569,0.0532,0.0592,0.0592,0.0581,0.0573,0.0572,0.0511,0.051,0.0464,0.0506,0.0504,0.0463,0.0506,0.0507,0.0507,0,0.0244,0.0253,0.0286,0.031,0.0321,0.0337,0.0398,0.0417,0.0517,0.0563,0.0667,0.0708,0.0778,0.071,0.0699,0.0698,0.0631,0.0591,0.0588,0.0536,0.0471,0.0431,0.0466,0.0512,0.0512,0.0511,0.0511,0,0.027,0.029,0.0322,0.033,0.0354,0.0385,0.04,0.0481,0.0543,0.0682,0.0767,0.084,0.089,0.0827,0.0737,0.0719,0.0683,0.0643,0.0543,0.0537,0.0521,0.0512,0.0621,0.0621,0.0621,0.0621,0.0621,0,0.0302,0.0323,0.0343,0.0363,0.0416,0.0426,0.0523,0.0564,0.0679,0.0809,0.0864,0.0961,0.0916,0.0891,0.0781,0.0674,0.0712,0.0568,0.0536,0.0536,0.053,0.0565,0.0559,0.0619,0.0619,0.062,0.062,0,0.033,0.0343,0.0383,0.042,0.0432,0.0479,0.0567,0.0655,0.0758,0.0921,0.0976,0.1053,0.1027,0.0953,0.0851,0.0738,0.0633,0.058,0.0571,0.054,0.0467,0.0465,0.0469,0.0467,0.0466,0.0465,0.0464,0,0.0346,0.037,0.0422,0.0452,0.0473,0.0538,0.0597,0.0692,0.0809,0.0971,0.1068,0.1096,0.1116,0.0953,0.0794,0.0621,0.0615,0.0494,0.0462,0.049,0.0458,0.0458,0.0457,0.0449,0.0448,0.0448,0.0447,0,0.0379,0.0411,0.0444,0.0491,0.0555,0.0636,0.0734,0.0829,0.0975,0.1083,0.1189,0.1189,0.1088,0.0917,0.0711,0.0587,0.0522,0.0468,0.0528,0.0486,0.0468,0.0437,0.0438,0.0439,0.044,0.0441,0.0441,0.0441,0.0407,0.0435,0.0483,0.0534,0.0614,0.073,0.0809,0.0926,0.106,0.1208,0.1206,0.1191,0.1062,0.0766,0.0604,0.045,0.0456,0.0374,0.0379,0.0384,0.0388,0.0369,0.032,0.032,0.032,0.032,0.032,0,0.0427,0.0459,0.051,0.0595,0.0693,0.0737,0.0902,0.098,0.1114,0.1186,0.1216,0.1038,0.0872,0.0735,0.0493,0.0334,0.0336,0.0288,0.0331,0.0339,0.0346,0.0349,0.027,0.027,0.0269,0.0269,0,0,0.0441,0.0483,0.0506,0.0648,0.0724,0.086,0.0957,0.1051,0.112,0.1128,0.1101,0.1061,0.0902,0.0713,0.0535,0.0408,0.0403,0.0374,0.0426,0.0506,0.0514,0.0404,0.0419,0,0,0,0,0]}],[{"header":{"parameterUnit":"m.s-1","parameterCategory":2,"la1":30.2991,"la2":30.254,"lo1":-89.0895,"lo2":-89.0444,"dy":0.0017,"dx":0.0017,"nx":28,"ny":28,"refTime":"2024-07-31T09:00:00:Z","depth":"4","parameterNumber":2,"parameterNumberName":"U-component_of_CURRENTS"},"data":[0,0,0,0,0,0,0,0,0,0,0,0,0,0,0,0,0,0,0,0,0,0,0,0,0,0,0,0,0,0,0,0,0,0,0,0,0,0,0,0,0,0,0,0,0,0,0,0,0,0,0,0,0,0,0,0,0,0,0.0911,0.0911,0,0.0915,0.0915,0.0915,0.097,0.0972,0.0973,0.0974,0.0988,0.0987,0.0986,0,0,0,0,0,0,0,0,0,0,0,0,0,0.0932,0.0931,0.0911,0.0911,0.0911,0.0915,0.0915,0.0915,0.097,0.0972,0.0973,0.0975,0.0988,0.0987,0.0986,0,0,0,0,0,0,0,0,0,0,0,0,0,0.0928,0.0931,0.0911,0.0939,0.0942,0.0915,0.0915,0.0915,0.097,0.0972,0.0974,0.0976,0.0989,0.0987,0.0986,0.0934,0,0,0.0981,0.0981,0,0,0,0,0,0,0,0,0.0928,0.0927,0.0935,0.0937,0.094,0.0945,0.0927,0.0922,0.0969,0.0959,0.0974,0.0977,0.0973,0.0973,0.0968,0.0934,0.0935,0.0981,0.098,0.098,0.0979,0,0,0,0,0,0,0,0.0928,0.0927,0.0913,0.0935,0.0938,0.0945,0.0947,0.0926,0.0954,0.096,0.0964,0.0964,0.0975,0.0969,0.0969,0.0935,0.0981,0.098,0.0979,0.0978,0.1038,0.104,0,0,0,0,0,0,0.0927,0.0927,0.0912,0.0913,0.094,0.0943,0.0945,0.0941,0.0954,0.0958,0.0962,0.0967,0.0971,0.0971,0.097,0.1015,0.098,0.0978,0.0977,0.1036,0.1039,0.1041,0,0,0,0,0,0,0.0927,0.0925,0.0912,0.0921,0.092,0.0941,0.0935,0.094,0.0964,0.0956,0.096,0.0986,0.0973,0.0972,0.0975,0.1013,0.0978,0.0976,0.1033,0.1036,0.104,0.1038,0,0,0,0,0,0,0.0927,0.0925,0.0934,0.092,0.0919,0.0909,0.0933,0.0938,0.0959,0.0966,0.0976,0.0978,0.0974,0.0977,0.0974,0.101,0.0975,0.103,0.1034,0.1039,0.1035,0.1042,0.1047,0,0,0,0,0,0.0928,0.0922,0.0934,0.0933,0.0926,0.0909,0.0909,0.0931,0.0959,0.0963,0.0977,0.098,0.1007,0.0976,0.0972,0.1009,0.1027,0.1033,0.1038,0.1033,0.104,0.1047,0,0,0,0,0,0,0.093,0.0927,0.0939,0.0933,0.093,0.0919,0.0928,0.0941,0.0954,0.0977,0.0973,0.0974,0.1008,0.1006,0.0973,0.105,0.1032,0.1037,0.103,0.1037,0.1043,0.1052,0.0974,0,0,0,0,0,0.0933,0.094,0.0928,0.0929,0.0927,0.0933,0.0936,0.0952,0.0955,0.0966,0.0956,0.0982,0.1021,0.1026,0.1043,0.1046,0.1062,0.1085,0.1091,0.1095,0.1107,0.1179,0.1191,0.1059,0.1059,0.1059,0,0,0.0936,0.0936,0.0941,0.0932,0.0935,0.092,0.0941,0.0953,0.0943,0.0962,0.0944,0.0991,0.1031,0.1057,0.1075,0.1059,0.1135,0.1103,0.1105,0.1114,0.1186,0.1198,0.1209,0.1063,0.1062,0.1062,0,0,0.0932,0.0942,0.0943,0.0931,0.0939,0.0938,0.0945,0.0934,0.0939,0.0933,0.0975,0.1035,0.1036,0.1084,0.1113,0.1158,0.117,0.1187,0.1206,0.1275,0.1286,0.1296,0.1292,0.1301,0.1182,0.1182,0.1182,0,0.094,0.0928,0.094,0.0922,0.0915,0.0944,0.0931,0.0925,0.0915,0.0936,0.0935,0.1043,0.1055,0.1147,0.1172,0.1169,0.1193,0.1165,0.128,0.129,0.13,0.1294,0.1305,0.1182,0.1182,0.1182,0.1182,0,0.0917,0.0913,0.0907,0.0899,0.0895,0.089,0.0881,0.0892,0.0913,0.0927,0.1012,0.105,0.1131,0.1157,0.1169,0.1274,0.126,0.128,0.1251,0.1313,0.1303,0.1313,0.1183,0.1183,0.1183,0.1183,0,0,0.0919,0.0899,0.0899,0.089,0.0884,0.0877,0.0879,0.0899,0.0947,0.0961,0.102,0.1105,0.1174,0.1215,0.1266,0.1319,0.1382,0.1329,0.1333,0.1303,0.1497,0.1325,0.1319,0.1432,0.1435,0.1437,0.1444,0,0.0901,0.0871,0.0867,0.0845,0.0826,0.085,0.0844,0.088,0.0936,0.0987,0.1078,0.1166,0.118,0.1263,0.1314,0.1381,0.142,0.1376,0.1461,0.1462,0.1286,0.133,0.1447,0.1452,0.1454,0.1456,0.1457,0,0.0879,0.0859,0.0837,0.0824,0.0822,0.0825,0.0889,0.0889,0.0985,0.1041,0.1167,0.1238,0.1338,0.1347,0.1464,0.1442,0.1473,0.1505,0.1507,0.136,0.1312,0.1393,0.1477,0.1476,0.1474,0.1473,0.1472,0,0.0872,0.0841,0.0831,0.0816,0.0806,0.0831,0.085,0.0935,0.0967,0.1116,0.1182,0.1316,0.1399,0.147,0.1508,0.1515,0.1604,0.1618,0.1487,0.1473,0.1623,0.1613,0.1711,0.1711,0.1711,0.1711,0.1711,0,0.0842,0.083,0.0838,0.082,0.0821,0.0835,0.0893,0.0943,0.1052,0.1115,0.1223,0.1307,0.1448,0.15,0.1525,0.1504,0.1616,0.1491,0.1478,0.1616,0.1606,0.1627,0.1617,0.1712,0.1712,0.1712,0.1712,0,0.0817,0.0827,0.0791,0.0795,0.0814,0.0812,0.0882,0.0927,0.1044,0.1138,0.119,0.1328,0.139,0.1449,0.1563,0.1513,0.1524,0.1496,0.1586,0.1578,0.1338,0.1329,0.1355,0.1349,0.1344,0.134,0.1337,0,0.0794,0.0782,0.0765,0.0752,0.0757,0.0787,0.081,0.0918,0.099,0.1135,0.1169,0.1277,0.1345,0.133,0.141,0.1405,0.1406,0.1389,0.1413,0.1324,0.131,0.1308,0.1305,0.1329,0.1328,0.1327,0.1325,0,0.0725,0.0731,0.0695,0.0673,0.0686,0.07,0.0771,0.0823,0.0957,0.1058,0.1148,0.118,0.122,0.127,0.126,0.1268,0.1388,0.134,0.1351,0.1374,0.1294,0.1284,0.1286,0.1309,0.1311,0.1313,0.1314,0,0.0671,0.0623,0.0597,0.057,0.0585,0.0618,0.066,0.0748,0.0828,0.1019,0.1047,0.1119,0.1236,0.1196,0.1188,0.1162,0.1164,0.1149,0.1171,0.119,0.1127,0.1,0.0916,0,0,0,0,0,0.0617,0.0564,0.0505,0.0482,0.05,0.0538,0.0629,0.0696,0.0853,0.0886,0.098,0.1011,0.1018,0.1059,0.0998,0.1077,0.1141,0.0998,0.113,0.1216,0.1235,0.1173,0,0,0,0,0,0,0.0574,0.0523,0.0469,0.0431,0.0435,0.0473,0.0538,0.0636,0.0689,0.0839,0.0852,0.0944,0.0962,0.1047,0.0984,0.0987,0.1044,0.1047,0.1044,0.1205,0.1223,0.1238,0.1181,0,0,0,0,0]},{"header":{"parameterUnit":"m.s-1","parameterCategory":2,"la1":30.2991,"la2":30.254,"lo1":-89.0895,"lo2":-89.0444,"dy":0.0017,"dx":0.0017,"nx":28,"ny":28,"refTime":"2024-07-31T09:00:00:Z","depth":"4","parameterNumber":3,"parameterNumberName":"V-component_of_CURRENTS"},"data":[0,0,0,0,0,0,0,0,0,0,0,0,0,0,0,0,0,0,0,0,0,0,0,0,0,0,0,0,0,0,0,0,0,0,0,0,0,0,0,0,0,0,0,0,0,0,0,0,0,0,0,0,0,0,0,0,0,0,0.0023,0.0023,0,0.0022,0.0022,0.0022,0.0016,0.0015,0.0015,0.0015,0.0029,0.0029,0.003,0,0,0,0,0,0,0,0,0,0,0,0,0,0.0021,0.0021,0.0023,0.0023,0.0023,0.0022,0.0022,0.0022,0.0016,0.0015,0.0015,0.0015,0.0028,0.0029,0.003,0,0,0,0,0,0,0,0,0,0,0,0,0,0.0022,0.0022,0.0023,0.0019,0.0019,0.0022,0.0022,0.0022,0.0016,0.0015,0.0015,0.0015,0.0028,0.0029,0.003,0.0042,0,0,0.0033,0.0033,0,0,0,0,0,0,0,0,0.0022,0.0022,0.002,0.002,0.0019,0.0018,0.0027,0.003,0.0016,0.0018,0.0015,0.0015,0.0026,0.0027,0.0029,0.0043,0.0043,0.0033,0.0033,0.0034,0.0034,0,0,0,0,0,0,0,0.0022,0.0022,0.0024,0.002,0.0019,0.0018,0.0018,0.0027,0.0025,0.0017,0.0017,0.0016,0.0026,0.0028,0.0029,0.0044,0.0033,0.0033,0.0034,0.0034,0.0051,0.0051,0,0,0,0,0,0,0.0021,0.0022,0.0024,0.0024,0.0019,0.0018,0.0018,0.0019,0.0024,0.0024,0.0016,0.0015,0.0026,0.0028,0.0029,0.0043,0.0034,0.0034,0.0035,0.0051,0.0051,0.0051,0,0,0,0,0,0,0.0021,0.0021,0.0024,0.0022,0.0022,0.0019,0.002,0.002,0.0022,0.0023,0.0023,0.0019,0.0026,0.0028,0.0036,0.0044,0.0035,0.0036,0.0052,0.0051,0.0051,0.0072,0,0,0,0,0,0,0.0021,0.0022,0.0024,0.0022,0.0022,0.0027,0.002,0.002,0.0022,0.0021,0.0026,0.0027,0.0026,0.0034,0.0037,0.0045,0.0036,0.0052,0.0051,0.0051,0.0071,0.0072,0.0073,0,0,0,0,0,0.0021,0.0026,0.0024,0.0024,0.0025,0.0027,0.0027,0.0024,0.0022,0.0025,0.0026,0.0027,0.0035,0.0035,0.0038,0.0046,0.0052,0.0052,0.0051,0.007,0.0072,0.0073,0,0,0,0,0,0,0.0027,0.0026,0.0024,0.0028,0.0027,0.0025,0.0029,0.0027,0.003,0.0031,0.0031,0.0032,0.0038,0.0039,0.0039,0.0049,0.0042,0.0042,0.0055,0.0057,0.0058,0.0054,0.0037,0,0,0,0,0,0.0029,0.0033,0.003,0.0034,0.0035,0.0033,0.0034,0.0032,0.0033,0.0034,0.0035,0.0037,0.0039,0.0045,0.0045,0.0058,0.0046,0.0062,0.0064,0.0065,0.0062,0.0055,0.0055,0.0051,0.0051,0.0051,0,0,0.0031,0.0033,0.0034,0.0036,0.0036,0.0041,0.0033,0.0037,0.0041,0.0036,0.0043,0.004,0.0042,0.0049,0.0053,0.0053,0.0058,0.0064,0.0066,0.0062,0.0055,0.0055,0.0056,0.0051,0.0051,0.0051,0,0,0.0041,0.004,0.0047,0.0049,0.0051,0.0049,0.0051,0.005,0.0049,0.0056,0.005,0.0049,0.0059,0.0057,0.0059,0.0067,0.006,0.007,0.008,0.0074,0.0074,0.0075,0.0054,0.0052,0.0076,0.0076,0.0076,0,0.0045,0.0053,0.0049,0.0058,0.0063,0.0054,0.0065,0.0063,0.0063,0.0063,0.006,0.0064,0.0061,0.0072,0.0069,0.0071,0.0062,0.0078,0.0076,0.0076,0.0076,0.0054,0.0052,0.0077,0.0076,0.0076,0.0076,0,0.0061,0.0067,0.0072,0.008,0.0085,0.0091,0.0089,0.0088,0.0086,0.0083,0.0087,0.0083,0.0086,0.0084,0.008,0.0082,0.0072,0.0075,0.0075,0.0078,0.0054,0.0052,0.0078,0.0078,0.0077,0.0077,0,0,0.0069,0.0081,0.0084,0.0093,0.0098,0.0106,0.0109,0.011,0.0115,0.0109,0.0116,0.0112,0.0107,0.0108,0.0105,0.0096,0.0081,0.0087,0.0086,0.0069,0.0058,0.0053,0.005,0.0089,0.0089,0.0088,0.0039,0,0.0083,0.0106,0.0108,0.0128,0.014,0.0134,0.0144,0.0143,0.0136,0.0136,0.0126,0.0135,0.0119,0.0129,0.0114,0.0086,0.0076,0.0093,0.0054,0.0053,0.0051,0.0048,0.0088,0.0037,0.0037,0.0036,0.0036,0,0.0097,0.0113,0.0138,0.0158,0.0164,0.0176,0.0187,0.0194,0.0184,0.0181,0.0177,0.0168,0.0153,0.0145,0.0099,0.0112,0.0086,0.0063,0.0061,0.0048,0.0044,0.0034,0.0031,0.0031,0.0032,0.0032,0.0032,0,0.0109,0.0132,0.0156,0.0163,0.0183,0.0195,0.0208,0.0208,0.0224,0.0213,0.0216,0.0195,0.02,0.0153,0.0099,0.0103,0.0041,0.0043,0.0015,0.0013,0.0023,0.0024,0.0018,0.0018,0.0018,0.0019,0.0019,0,0.0121,0.0139,0.0165,0.0178,0.0212,0.0221,0.0252,0.0252,0.0268,0.0288,0.0248,0.0256,0.0205,0.0163,0.0103,0.0042,0.0046,0.001,0.0003,0.0031,0.0033,0.0021,0.0022,0.0017,0.0017,0.0017,0.0018,0,0.0125,0.0141,0.0171,0.0204,0.0217,0.0245,0.0294,0.0314,0.0318,0.0339,0.0343,0.0313,0.0253,0.018,0.0109,0.0064,-0.0004,-0.002,0.0001,-0.0003,-0.0032,-0.0029,-0.0063,-0.0063,-0.0063,-0.0064,-0.0064,0,0.0129,0.0145,0.0191,0.0223,0.0241,0.0284,0.0315,0.0339,0.0366,0.0371,0.0383,0.0343,0.0306,0.0187,0.0111,-0.0009,-0.0014,-0.005,-0.0032,-0.0035,-0.0039,-0.0036,-0.0033,-0.0065,-0.0065,-0.0065,-0.0065,0,0.014,0.0157,0.0183,0.024,0.0282,0.0327,0.0374,0.04,0.0425,0.043,0.0423,0.0362,0.0295,0.0201,0.0113,0.0028,-0.0034,-0.0054,-0.0054,-0.0038,-0.0039,-0.0041,-0.0038,-0.0067,-0.0066,-0.0066,-0.0066,0,0.0147,0.0169,0.0206,0.026,0.0307,0.035,0.0378,0.0414,0.044,0.0453,0.0454,0.0367,0.0342,0.0221,0.013,0.0048,0.0034,0.0016,0.0013,0.0014,0.005,0.0061,0.0055,0,0,0,0,0,0.0155,0.0183,0.0229,0.028,0.0324,0.0357,0.0406,0.0432,0.0457,0.0461,0.0465,0.0397,0.0279,0.0226,0.0144,0.0111,0.0008,0.0012,-0.0017,-0.0075,-0.0073,-0.0043,0,0,0,0,0,0,0.0164,0.0198,0.0222,0.028,0.0325,0.0369,0.0404,0.0428,0.0436,0.0454,0.0391,0.0382,0.0261,0.0326,0.0144,0.012,0.0091,-0.0038,-0.0039,-0.0076,-0.0074,-0.0073,-0.0042,0,0,0,0,0]}]]